Location: Cisewo
(53.3833°N, 14.9000°E)
Time: 13:01:29
(UTC+00:00)

Meteor 2-15 - Pass Details

Date: 18 April 2021
Orbit: 936 x 955 km, 82.5° (Epoch: 16 May)

Event Time Altitude Azimuth Distance (km) Brightness Sun altitude
Exits shadow 21:09:37 36° 181° (S) 1,439 4.9 -21.3°
Maximum altitude 21:12:15 82° 98° (E) 955 4.3 -21.5°
Drops below altitude 10° 21:18:20 10° 13° (NNE) 2,662 7.5 -22.0°
Sets 21:20:50 0° 13° (NNE) 3,611 8.3 -22.1°
